Flag for France

Past Weather in Bordeaux, Nouvelle-Aquitaine, France — Yesterday and Last 2 Weeks

Now
72 °F

Passing clouds.


Feels Like: 77 °F
Forecast: 91 / 62 °F
Wind: 7 mph from Northeast

Location: Bordeaux / Merignac

Current Time: Jul 8, 2020 at 10:54:33 am

Latest Report: Jul 8, 2020 at 10:00 am


Visibility: N/A

Pressure: 30.09 "Hg

Humidity: 47%

Dew Point: 50 °F

Location of BordeauxLocation

Past Weather in Bordeaux — Graph

°F

Bordeaux Temperature Yesterday

Maximum temperature yesterday: 79 °F (at 4:30 pm)
Minimum temperature yesterday: 55 °F (at 6:00 am)
Average temperature yesterday: 68 °F

High & Low Weather Summary for the Past Weeks

 TemperatureHumidityPressure
High93 °F (Jun 24, 4:30 pm)100% (Jul 4, 7:00 am)30.27 "Hg (Jul 4, 7:00 am)
Low52 °F (Jul 4, 4:30 am)32% (Jun 24, 4:30 pm)29.86 "Hg (Jul 1, 4:30 am)
Average69 °F69%30.08 "Hg
* Reported Jun 23 9:00 am — Jul 8 9:30 am, Bordeaux. Weather by CustomWeather, © 2020

Note: Actual official high and low records may vary slightly from our data, if they occured in-between our weather recording intervals... More about our weather records

Bordeaux Weather History for the Previous 24 Hours

Scroll right to see more
 ConditionsComfort  
Time TempWeatherWind HumidityBarometerVisibility
9:30 am
Wed, Jul 8
70 °FPassing clouds.7 mph53%30.09 "HgN/A
9:00 am68 °FPassing clouds.7 mph56%30.09 "HgN/A
8:30 am66 °FSunny.6 mph60%30.07 "Hg10 mi
8:00 am64 °FSunny.5 mph64%30.07 "Hg10 mi
7:30 am61 °FSunny.3 mph72%30.07 "Hg10 mi
7:00 am57 °FSunny.3 mph88%30.07 "Hg10 mi
6:30 am55 °FSunny.No wind94%30.07 "Hg10 mi
6:00 am55 °FClear.1 mph88%30.07 "HgN/A
5:30 am57 °FClear.2 mph88%30.07 "Hg10 mi
5:00 am59 °FClear.1 mph82%30.07 "Hg10 mi
4:30 am59 °FClear.5 mph88%30.07 "HgN/A
4:00 am59 °FClear.3 mph88%30.07 "HgN/A
3:00 am61 °FClear.3 mph83%30.09 "Hg10 mi
2:30 am61 °FClear.3 mph83%30.09 "Hg10 mi
2:00 am61 °FClear.2 mph83%30.09 "Hg10 mi
1:30 am63 °FClear.2 mph77%30.09 "Hg10 mi
1:00 am63 °FClear.2 mph73%30.09 "Hg10 mi
12:30 am63 °FClear.2 mph73%30.12 "Hg10 mi
12:00 am64 °FClear.3 mph68%30.12 "Hg10 mi
11:30 pm
Tue, Jul 7
64 °FClear.3 mph68%30.12 "Hg10 mi
11:00 pm66 °FPassing clouds.3 mph64%30.09 "HgN/A
10:30 pm66 °FClear.7 mph68%30.09 "Hg10 mi
10:00 pm68 °FClear.10 mph64%30.09 "Hg10 mi
9:30 pm70 °FSunny.10 mph60%30.09 "Hg10 mi
9:00 pm73 °FSunny.12 mph50%30.09 "Hg10 mi
8:30 pm75 °FSunny.10 mph39%30.09 "Hg10 mi
8:00 pm77 °FSunny.9 mph36%30.09 "Hg10 mi
7:30 pm75 °FSunny.10 mph36%30.09 "Hg10 mi
7:00 pm77 °FPassing clouds.9 mph34%30.09 "HgN/A
6:30 pm79 °FSunny.9 mph34%30.09 "Hg10 mi
6:00 pm79 °FSunny.10 mph34%30.09 "Hg10 mi
5:30 pm79 °FPassing clouds.6 mph34%30.09 "HgN/A
5:00 pm79 °FPassing clouds.8 mph34%30.12 "HgN/A
4:30 pm79 °FSunny.6 mph34%30.12 "Hg10 mi
4:00 pm77 °FPassing clouds.8 mph36%30.12 "HgN/A
3:30 pm77 °FSunny.6 mph36%30.12 "Hg10 mi
3:00 pm77 °FPassing clouds.10 mph36%30.12 "HgN/A
2:30 pm77 °FPassing clouds.7 mph36%30.15 "HgN/A
2:00 pm75 °FPassing clouds.8 mph39%30.15 "HgN/A
1:30 pm77 °FPassing clouds.12 mph36%30.15 "HgN/A
1:00 pm75 °FSunny.6 mph36%30.15 "Hg10 mi
12:30 pm73 °FPassing clouds.10 mph38%30.18 "HgN/A
12:00 pm73 °FSunny.7 mph38%30.18 "Hg10 mi
11:30 am73 °FPassing clouds.6 mph41%30.18 "HgN/A
11:00 am72 °FPassing clouds.6 mph44%30.18 "HgN/A
10:30 am70 °FPassing clouds.5 mph50%30.18 "HgN/A
10:00 am68 °FPassing clouds.6 mph53%30.18 "HgN/A
Weather by CustomWeather, © 2020

See weather overview